Location: Santa Maria di Sala
(45.5070°N, 12.0300°E)
Time: 07:08:29
(UTC+02:00)

STRAND 1 - Pass Details

Date: 02 March 2024
Orbit: 764 x 779 km, 98.4° (Epoch: 16 April)

Event Time Altitude Azimuth Distance (km) Brightness Sun altitude
Rises 03:50:26 0° 103° (ESE) 3,260 ? -31.3°
Reaches altitude 10° 03:54:50 10° 67° (ENE) 2,338 ? -30.6°
Maximum altitude 03:55:57 11° 54° (NE) 2,290 ? -30.4°
Drops below altitude 10° 03:57:05 10° 41° (NE) 2,340 ? -30.2°
Sets 04:01:29 0° 5° (N) 3,272 ? -29.5°
